This is the latest recevied weather packets stored in our database for station/object SP6PGH-13. If no packets are shown the sender has not sent any weather packets the latest 10 day(s).
| Time | Temp. | Humidity | Pressure | Rain* | Wind** | Luminosity | Snow |
|---|---|---|---|---|---|---|---|
| 1777160952 | 10° C | 59% | 997.8 hPa | - | - | - | - |
| 1777160050 | 10.56° C | 57% | 997.5 hPa | - | - | - | - |
| 1777159149 | 11.11° C | 55% | 997 hPa | - | - | - | - |
| 1777158248 | 11.67° C | 58% | 996.7 hPa | - | - | - | - |
| 1777157347 | 12.22° C | 57% | 996.3 hPa | - | - | - | - |
| 1777156446 | 12.22° C | 59% | 996.2 hPa | - | - | - | - |
| 1777155545 | 11.67° C | 57% | 996 hPa | - | - | - | - |
| 1777154644 | 12.22° C | 55% | 995.9 hPa | - | - | - | - |
| 1777153743 | 12.22° C | 51% | 995.9 hPa | - | - | - | - |
| 1777152842 | 12.22° C | 48% | 995.9 hPa | - | - | - | - |
| 1777151941 | 12.22° C | 45% | 996 hPa | - | - | - | - |
| 1777151040 | 12.78° C | 43% | 996 hPa | - | - | - | - |
| 1777150139 | 12.78° C | 42% | 995.9 hPa | - | - | - | - |
| 1777149238 | 13.33° C | 41% | 995.7 hPa | - | - | - | - |
| 1777148337 | 13.33° C | 42% | 995.7 hPa | - | - | - | - |
| 1777147436 | 12.78° C | 45% | 995.6 hPa | - | - | - | - |
| 1777146535 | 13.33° C | 46% | 995.8 hPa | - | - | - | - |
| 1777145634 | 13.33° C | 46% | 995.5 hPa | - | - | - | - |
| 1777144733 | 13.89° C | 46% | 995.5 hPa | - | - | - | - |
| 1777143832 | 14.44° C | 46% | 995.5 hPa | - | - | - | - |
| 1777142930 | 14.44° C | 46% | 995.6 hPa | - | - | - | - |
| 1777142029 | 14.44° C | 44% | 995.6 hPa | - | - | - | - |
| 1777141129 | 15° C | 43% | 995.5 hPa | - | - | - | - |
| 1777140227 | 15.56° C | 41% | 995.5 hPa | - | - | 3 W/m² | - |
| 1777139326 | 16.11° C | 39% | 995.4 hPa | - | - | 9 W/m² | - |
* Rain since midnight (hover to see other rain measurements)
** Current wind speed in m/s (hover to see current wind gust speed)